Location: Unspecified
(0.0000°N, 0.0000°E)
Time: 17:18:35
(UTC+00:00)

Hubble Space Telescope - Pass Details

Date: 21 March 2019
Orbit: 537 x 540 km, 28.5° (Epoch: 23 May)

Event Time Altitude Azimuth Distance (km) Brightness Sun altitude
Rises 19:01:11 0° 273° (W) 2,674 6.4 -13.5°
Reaches altitude 10° 19:04:17 10° 297° (WNW) 1,782 4.5 -14.3°
Maximum altitude 19:06:39 15° 332° (NNW) 1,498 3.4 -14.9°
Drops below altitude 10° 19:09:01 10° 7° (N) 1,780 3.3 -15.5°
Enters shadow 19:10:51 - 24° (NNE) 2,265 3.7 -15.9°
